Location: Lane
(33.5226°N, 79.8788°W)
Time: 22:18:58
(UTC+00:00)

Tiros 1 - Pass Details

Date: 07 October 2022
Orbit: 629 x 662 km, 48.4° (Epoch: 08 December)

Event Time Altitude Azimuth Distance (km) Brightness Sun altitude
Exits shadow 09:53:24 37° 283° (WNW) 1,012 7.6 -18.5°
Maximum altitude 09:55:01 58° 223° (SW) 755 7.2 -18.1°
Drops below altitude 10° 09:59:36 10° 145° (SE) 2,026 10.1 -17.2°
Sets 10:01:56 0° 141° (SE) 2,926 11.0 -16.7°
